Location: Waco, TX
(31.5480°N, 97.1670°W)
Time: 09:23:40
(UTC-05:00)

ISS - Pass Details

Date: 22 May 2017
Orbit: 402 x 409 km, 51.6° (Epoch: 25 May)

Event Time Altitude Azimuth Distance (km) Brightness Sun altitude
Rises 07:41:14 0° 292° (WNW) 2,312 -0.5 13.8°
Reaches altitude 10° 07:44:16 10° 261° (W) 1,448 -1.6 14.4°
Maximum altitude 07:45:41 12° 234° (SW) 1,311 -1.7 14.7°
Drops below altitude 10° 07:47:06 10° 208° (SSW) 1,442 -1.4 15.0°
Sets 07:50:07 0° 177° (S) 2,295 -0.1 15.6°
